TimeEDT,TemperatureF,Dew PointF,Humidity,Sea Level PressureIn,VisibilityMPH,Wind Direction,Wind SpeedMPH,Gust SpeedMPH,PrecipitationIn,Events,Conditions,WindDirDegrees,DateUTC
12:21 AM,24.8,21.2,86,29.71,1.2,North,4.6,-,0.02,Snow,Light Snow,350,2013-03-20 04:21:00
12:27 AM,24.8,21.2,86,29.71,0.8,NNW,6.9,-,0.02,Snow,Light Snow,340,2013-03-20 04:27:00
12:34 AM,24.8,21.2,86,29.70,0.5,Calm,Calm,-,0.03,Fog-Snow,Snow,0,2013-03-20 04:34:00
12:43 AM,24.8,21.2,86,29.69,1.0,Calm,Calm,-,0.04,Snow,Light Snow,0,2013-03-20 04:43:00
12:45 AM,24.8,21.2,86,29.69,1.2,Calm,Calm,-,0.04,Snow,Light Snow,0,2013-03-20 04:45:00
12:50 AM,24.8,23.0,93,29.69,3.0,Calm,Calm,-,0.04,Snow,Light Snow,0,2013-03-20 04:50:00
12:54 AM,25.0,23.0,92,29.72,4.0,Calm,Calm,-,0.04,Snow,Light Snow,0,2013-03-20 04:54:00
1:03 AM,24.8,23.0,93,29.69,6.0,Calm,Calm,-,0.00,Snow,Light Snow,0,2013-03-20 05:03:00
1:54 AM,24.1,21.0,88,29.71,9.0,Calm,Calm,-,0.00,,Overcast,0,2013-03-20 05:54:00
2:54 AM,23.0,21.0,92,29.70,7.0,Calm,Calm,-,N/A,,Overcast,0,2013-03-20 06:54:00
3:54 AM,24.1,21.0,88,29.69,8.0,Calm,Calm,-,N/A,,Overcast,0,2013-03-20 07:54:00
4:54 AM,24.1,21.0,88,29.69,6.0,South,4.6,-,0.00,Snow,Light Snow,190,2013-03-20 08:54:00
5:54 AM,23.0,19.9,88,29.69,7.0,Calm,Calm,-,0.00,,Overcast,0,2013-03-20 09:54:00
6:54 AM,21.0,18.0,88,29.70,8.0,South,4.6,-,N/A,,Overcast,190,2013-03-20 10:54:00
7:54 AM,24.1,19.0,81,29.70,5.0,Calm,Calm,-,N/A,,Haze,0,2013-03-20 11:54:00
8:54 AM,26.1,21.0,81,29.70,9.0,Calm,Calm,-,N/A,,Overcast,0,2013-03-20 12:54:00
9:54 AM,26.1,17.1,69,29.70,10.0,Calm,Calm,-,N/A,,Mostly Cloudy,0,2013-03-20 13:54:00
10:54 AM,28.0,16.0,61,29.70,10.0,NW,5.8,-,N/A,,Overcast,320,2013-03-20 14:54:00
11:54 AM,30.9,16.0,54,29.69,10.0,WNW,6.9,-,N/A,,Overcast,300,2013-03-20 15:54:00
12:54 PM,30.0,19.0,64,29.68,10.0,Variable,6.9,-,N/A,,Overcast,0,2013-03-20 16:54:00
1:54 PM,32.0,18.0,56,29.67,10.0,SSW,5.8,-,N/A,,Overcast,200,2013-03-20 17:54:00
2:54 PM,30.0,21.9,72,29.67,4.0,Variable,6.9,-,0.00,Snow,Light Snow,0,2013-03-20 18:54:00
3:02 PM,30.2,23.0,75,29.63,2.5,SW,8.1,-,0.00,Snow,Light Snow,230,2013-03-20 19:02:00
3:32 PM,28.4,23.0,80,29.63,1.5,SSW,6.9,-,0.00,Snow,Light Snow,210,2013-03-20 19:32:00
3:54 PM,30.0,25.0,82,29.66,1.2,SSW,6.9,-,0.00,Snow,Light Snow,200,2013-03-20 19:54:00
4:19 PM,28.4,24.8,86,29.63,0.8,South,5.8,-,0.00,Snow,Light Snow,180,2013-03-20 20:19:00
4:26 PM,28.4,24.8,86,29.63,0.8,South,6.9,-,0.01,Snow,Light Snow,190,2013-03-20 20:26:00
4:47 PM,28.4,26.6,93,29.64,0.5,SSW,4.6,-,0.02,Fog-Snow,Snow,200,2013-03-20 20:47:00
4:54 PM,28.9,26.1,89,29.67,0.5,SSW,5.8,-,0.02,Fog-Snow,Snow,200,2013-03-20 20:54:00
5:05 PM,28.4,26.6,93,29.64,1.2,SSW,3.5,-,0.01,Snow,Light Snow,200,2013-03-20 21:05:00
5:10 PM,28.4,26.6,93,29.64,3.0,SSW,4.6,-,0.01,Snow,Light Snow,200,2013-03-20 21:10:00
5:23 PM,30.2,26.6,86,29.64,9.0,Calm,Calm,-,0.01,,Overcast,0,2013-03-20 21:23:00
5:36 PM,30.2,24.8,80,29.65,1.5,Variable,5.8,-,0.01,Snow,Light Snow,0,2013-03-20 21:36:00
5:54 PM,28.9,24.1,82,29.68,3.0,Calm,Calm,-,0.01,Snow,Light Snow,0,2013-03-20 21:54:00
6:10 PM,28.4,24.8,86,29.65,1.8,Calm,Calm,-,0.00,Snow,Light Snow,0,2013-03-20 22:10:00
6:21 PM,28.4,24.8,86,29.65,1.0,Calm,Calm,-,0.00,Snow,Light Snow,0,2013-03-20 22:21:00
6:29 PM,28.4,24.8,86,29.65,2.0,Calm,Calm,-,0.00,Snow,Light Snow,0,2013-03-20 22:29:00
6:39 PM,28.4,24.8,86,29.66,6.0,Variable,3.5,-,0.00,Snow,Light Snow,0,2013-03-20 22:39:00
6:54 PM,28.9,24.1,82,29.70,10.0,South,4.6,-,0.00,,Overcast,190,2013-03-20 22:54:00
7:17 PM,28.4,21.2,74,29.67,2.5,Variable,4.6,-,0.00,Snow,Light Snow,0,2013-03-20 23:17:00
7:25 PM,28.4,23.0,80,29.67,1.2,SSW,3.5,-,0.00,Snow,Light Snow,200,2013-03-20 23:25:00
7:34 PM,28.4,24.8,86,29.67,0.8,Variable,3.5,-,0.01,Snow,Light Snow,0,2013-03-20 23:34:00
7:47 PM,28.4,24.8,86,29.67,1.2,South,3.5,-,0.02,Snow,Light Snow,170,2013-03-20 23:47:00
7:54 PM,28.0,25.0,88,29.71,3.0,South,3.5,-,0.02,Snow,Light Snow,190,2013-03-20 23:54:00
8:12 PM,28.4,24.8,86,29.67,9.0,SW,6.9,-,0.00,,Overcast,220,2013-03-21 00:12:00
8:54 PM,28.9,18.0,64,29.71,10.0,Variable,6.9,-,0.00,,Overcast,0,2013-03-21 00:54:00
9:54 PM,27.0,18.0,69,29.73,10.0,SSW,8.1,-,0.00,,Overcast,210,2013-03-21 01:54:00
10:54 PM,27.0,18.0,69,29.72,10.0,SSW,3.5,-,N/A,,Overcast,200,2013-03-21 02:54:00
11:54 PM,24.1,16.0,71,29.72,10.0,South,3.5,-,N/A,,Overcast,190,2013-03-21 03:54:00